Date,TemperatureHighF,TemperatureAvgF,TemperatureLowF,DewpointHighF,DewpointAvgF,DewpointLowF,HumidityHigh,HumidityAvg,HumidityLow,PressureMaxIn,PressureMinIn,WindSpeedMaxMPH,WindSpeedAvgMPH,GustSpeedMaxMPH,PrecipitationSumIn
2013-1-1,23,12,2,-100,-100,-100,0,0,100,0.00,40.00,0,-999,0,0.00
2013-1-2,33,18,2,-100,-100,-100,0,0,100,0.00,40.00,0,-999,0,0.00
2013-1-3,29,20,7,-100,-100,-100,0,0,100,0.00,40.00,0,-999,0,0.00
2013-1-4,37,21,7,-100,-100,-100,0,0,100,0.00,40.00,0,-999,0,0.00
2013-1-5,46,26,14,-100,-100,-100,0,0,100,0.00,40.00,0,-999,0,0.00
2013-1-6,31,20,13,-100,-100,-100,0,0,100,0.00,40.00,0,-999,0,0.00
2013-1-7,50,31,14,-100,-100,-100,0,0,100,0.00,40.00,0,-999,0,0.00
2013-1-8,48,33,20,-100,-100,-100,0,0,100,0.00,40.00,0,-999,0,0.00
2013-1-9,42,34,27,-100,-100,-100,0,0,100,0.00,40.00,0,-999,0,0.00
2013-1-10,42,34,29,-100,-100,-100,0,0,100,0.00,40.00,0,-999,0,0.00
2013-1-11,51,42,35,-100,-100,-100,0,0,100,0.00,40.00,0,-999,0,0.00
2013-1-12,48,27,20,-100,-100,-100,0,0,100,0.00,40.00,0,-999,0,0.00
2013-1-13,18,14,9,-100,-100,-100,0,0,100,0.00,40.00,0,-999,0,0.00
2013-1-14,31,18,7,-100,-100,-100,0,0,100,0.00,40.00,0,-999,0,0.00
2013-1-15,37,22,13,-100,-100,-100,0,0,100,0.00,40.00,0,-999,0,0.00
2013-1-16,44,32,20,-100,-100,-100,0,0,100,0.00,40.00,0,-999,0,0.00
2013-1-17,33,25,16,-100,-100,-100,0,0,100,0.00,40.00,0,-999,0,0.00
2013-1-18,53,36,23,-100,-100,-100,0,0,100,0.00,40.00,0,-999,0,0.00
2013-1-19,51,38,18,-100,-100,-100,0,0,100,0.00,40.00,0,-999,0,0.00
2013-1-20,20,14,11,-100,-100,-100,0,0,100,0.00,40.00,0,-999,0,0.00
2013-1-21,11,6,-2,-100,-100,-100,0,0,100,0.00,40.00,0,-999,0,0.00
2013-1-22,18,10,2,-100,-100,-100,0,0,100,0.00,40.00,0,-999,0,0.00
2013-1-23,29,20,7,-100,-100,-100,0,0,100,0.00,40.00,0,-999,0,0.00
2013-1-24,22,13,4,-100,-100,-100,0,0,100,0.00,40.00,0,-999,0,0.00
2013-1-25,33,25,13,-100,-100,-100,0,0,100,0.00,40.00,0,-999,0,0.00
2013-1-26,33,23,9,-100,-100,-100,0,0,100,0.00,40.00,0,-999,0,0.00
2013-1-27,35,33,31,-100,-100,-100,0,0,100,0.00,40.00,0,-999,0,0.00
2013-1-28,44,37,33,-100,-100,-100,0,0,100,0.00,40.00,0,-999,0,0.00
2013-1-29,51,40,33,-100,-100,-100,0,0,100,0.00,40.00,0,-999,0,0.00
2013-1-30,33,26,16,-100,-100,-100,0,0,100,0.00,40.00,0,-999,0,0.00
2013-1-31,11,6,2,-100,-100,-100,0,0,100,0.00,40.00,0,-999,0,0.00
2013-2-1,23,10,-5,-100,-100,-100,0,0,100,0.00,40.00,0,-999,0,0.00
2013-2-2,29,22,18,-100,-100,-100,0,0,100,0.00,40.00,0,-999,0,0.00
2013-2-3,39,24,16,-100,-100,-100,0,0,100,0.00,40.00,0,-999,0,0.00
2013-2-4,31,22,13,-100,-100,-100,0,0,100,0.00,40.00,0,-999,0,0.00
2013-2-5,41,30,18,-100,-100,-100,0,0,100,0.00,40.00,0,-999,0,0.00
2013-2-6,50,28,14,-100,-100,-100,0,0,100,0.00,40.00,0,-999,0,0.00
2013-2-7,37,34,29,-100,-100,-100,0,0,100,0.00,40.00,0,-999,0,0.00
2013-2-8,39,32,29,-100,-100,-100,0,0,100,0.00,40.00,0,-999,0,0.00
2013-2-9,37,32,31,-100,-100,-100,0,0,100,0.00,40.00,0,-999,0,0.00
2013-2-10,50,37,31,-100,-100,-100,0,0,100,0.00,40.00,0,-999,0,0.00
2013-2-11,33,31,29,-100,-100,-100,0,0,100,0.00,40.00,0,-999,0,0.00
2013-2-12,42,33,27,-100,-100,-100,0,0,100,0.00,40.00,0,-999,0,0.00
2013-2-13,46,36,25,-100,-100,-100,0,0,100,0.00,40.00,0,-999,0,0.00
2013-2-14,41,35,25,-100,-100,-100,0,0,100,0.00,40.00,0,-999,0,0.00
2013-2-15,29,23,18,-100,-100,-100,0,0,100,0.00,40.00,0,-999,0,0.00
2013-2-16,33,22,14,-100,-100,-100,0,0,100,0.00,40.00,0,-999,0,0.00
2013-2-17,41,30,18,-100,-100,-100,0,0,100,0.00,40.00,0,-999,0,0.00
2013-2-18,48,32,16,-100,-100,-100,0,0,100,0.00,40.00,0,-999,0,0.00
2013-2-19,20,14,5,-100,-100,-100,0,0,100,0.00,40.00,0,-999,0,0.00
2013-2-20,27,16,2,-100,-100,-100,0,0,100,0.00,40.00,0,-999,0,0.00
2013-2-21,27,22,16,-100,-100,-100,0,0,100,0.00,40.00,0,-999,0,0.00
2013-2-22,39,28,23,-100,-100,-100,0,0,100,0.00,40.00,0,-999,0,0.00
2013-2-23,39,25,14,-100,-100,-100,0,0,100,0.00,40.00,0,-999,0,0.00
2013-2-24,44,26,9,-100,-100,-100,0,0,100,0.00,40.00,0,-999,0,0.00
2013-2-25,46,33,27,-100,-100,-100,0,0,100,0.00,40.00,0,-999,0,0.00
2013-2-26,37,32,31,-100,-100,-100,0,0,100,0.00,40.00,0,-999,0,0.00
2013-2-27,37,32,31,-100,-100,-100,0,0,100,0.00,40.00,0,-999,0,0.00
2013-2-28,42,32,25,-100,-100,-100,0,0,100,0.00,40.00,0,-999,0,0.00
2013-3-1,39,30,25,-100,-100,-100,0,0,100,0.00,40.00,0,-999,0,0.00
2013-3-2,37,22,5,-100,-100,-100,0,0,100,0.00,40.00,0,-999,0,0.00
2013-3-3,46,27,13,-100,-100,-100,0,0,100,0.00,40.00,0,-999,0,0.00
2013-3-4,39,31,25,-100,-100,-100,0,0,100,0.00,40.00,0,-999,0,0.00
2013-3-5,39,31,27,-100,-100,-100,0,0,100,0.00,40.00,0,-999,0,0.00
2013-3-6,41,28,13,-100,-100,-100,0,0,100,0.00,40.00,0,-999,0,0.00
2013-3-7,42,26,7,-100,-100,-100,0,0,100,0.00,40.00,0,-999,0,0.00
2013-3-8,46,34,23,-100,-100,-100,0,0,100,0.00,40.00,0,-999,0,0.00
2013-3-9,39,37,35,-100,-100,-100,0,0,100,0.00,40.00,0,-999,0,0.00
2013-3-10,37,35,33,-100,-100,-100,0,0,100,0.00,40.00,0,-999,0,0.00
2013-3-11,33,31,27,-100,-100,-100,0,0,100,0.00,40.00,0,-999,0,0.00
2013-3-12,39,29,23,-100,-100,-100,0,0,100,0.00,40.00,0,-999,0,0.00
2013-3-13,39,27,18,-100,-100,-100,0,0,100,0.00,40.00,0,-999,0,0.00
2013-3-14,51,35,23,-100,-100,-100,0,0,100,0.00,40.00,0,-999,0,0.00
2013-3-15,50,38,29,-100,-100,-100,0,0,100,0.00,40.00,0,-999,0,0.00
2013-3-16,37,34,29,-100,-100,-100,0,0,100,0.00,40.00,0,-999,0,0.00
2013-3-17,39,32,23,-100,-100,-100,0,0,100,0.00,40.00,0,-999,0,0.00
2013-3-18,37,30,20,-100,-100,-100,0,0,100,0.00,40.00,0,-999,0,0.00
2013-3-19,32,25,14,-100,-100,-100,0,0,100,0.00,40.00,0,-999,0,0.00
2013-3-20,27,19,14,-100,-100,-100,0,0,100,0.00,40.00,0,-999,0,0.00
2013-3-21,44,26,11,-100,-100,-100,0,0,100,0.00,40.00,0,-999,0,0.00
2013-3-22,48,31,16,-100,-100,-100,0,0,100,0.00,40.00,0,-999,0,0.00
2013-3-23,46,36,25,-100,-100,-100,0,0,100,0.00,40.00,0,-999,0,0.00
2013-3-24,33,32,31,-100,-100,-100,0,0,100,0.00,40.00,0,-999,0,0.00
2013-3-25,41,33,27,-100,-100,-100,0,0,100,0.00,40.00,0,-999,0,0.00
2013-3-26,50,35,23,-100,-100,-100,0,0,100,0.00,40.00,0,-999,0,0.00
2013-3-27,62,38,23,-100,-100,-100,0,0,100,0.00,40.00,0,-999,0,0.00
2013-3-28,55,40,27,-100,-100,-100,0,0,100,0.00,40.00,0,-999,0,0.00
2013-3-29,60,45,29,-100,-100,-100,0,0,100,0.00,40.00,0,-999,0,0.00
2013-3-30,51,45,39,-100,-100,-100,0,0,100,0.00,40.00,0,-999,0,0.00
2013-3-31,51,42,32,-100,-100,-100,0,0,100,0.00,40.00,0,-999,0,0.00
2013-4-1,41,32,23,-100,-100,-100,0,0,100,0.00,40.00,0,-999,0,0.00
2013-4-2,50,35,20,-100,-100,-100,0,0,100,0.00,40.00,0,-999,0,0.00
2013-4-3,55,38,22,-100,-100,-100,0,0,100,0.00,40.00,0,-999,0,0.00
2013-4-4,75,49,27,-100,-100,-100,0,0,100,0.00,40.00,0,-999,0,0.00
2013-4-5,62,48,33,-100,-100,-100,0,0,100,0.00,40.00,0,-999,0,0.00
2013-4-6,69,56,44,-100,-100,-100,0,0,100,0.00,40.00,0,-999,0,0.00
2013-4-7,64,51,35,-100,-100,-100,0,0,100,0.00,40.00,0,-999,0,0.00
2013-4-8,78,62,48,-100,-100,-100,0,0,100,0.00,40.00,0,-999,0,0.00
2013-4-9,57,51,42,-100,-100,-100,0,0,100,0.00,40.00,0,-999,0,0.00
2013-4-10,42,39,35,-100,-100,-100,0,0,100,0.00,40.00,0,-999,0,0.00
2013-4-11,51,41,37,-100,-100,-100,0,0,100,0.00,40.00,0,-999,0,0.00
2013-4-12,42,37,35,-100,-100,-100,0,0,100,0.00,40.00,0,-999,0,0.00
2013-4-13,53,42,32,-100,-100,-100,0,0,100,0.00,40.00,0,-999,0,0.00
2013-4-14,73,55,39,-100,-100,-100,0,0,100,0.00,40.00,0,-999,0,0.00
2013-4-15,66,45,37,-100,-100,-100,0,0,100,0.00,40.00,0,-999,0,0.00
2013-4-16,55,42,31,-100,-100,-100,0,0,100,0.00,40.00,0,-999,0,0.00
2013-4-17,48,43,39,-100,-100,-100,0,0,100,0.00,40.00,0,-999,0,0.00
2013-4-18,46,40,35,-100,-100,-100,0,0,100,0.00,40.00,0,-999,0,0.00
2013-4-19,41,36,32,-100,-100,-100,0,0,100,0.00,40.00,0,-999,0,0.00
2013-4-20,59,41,29,-100,-100,-100,0,0,100,0.00,40.00,0,-999,0,0.00
2013-4-21,71,53,41,-100,-100,-100,0,0,100,0.00,40.00,0,-999,0,0.00
2013-4-22,73,58,48,-100,-100,-100,0,0,100,0.00,40.00,0,-999,0,0.00
2013-4-23,48,40,35,-100,-100,-100,0,0,100,0.00,40.00,0,-999,0,0.00
2013-4-24,59,45,29,-100,-100,-100,0,0,100,0.00,40.00,0,-999,0,0.00
2013-4-25,62,49,33,-100,-100,-100,0,0,100,0.00,40.00,0,-999,0,0.00
2013-4-26,78,61,46,-100,-100,-100,0,0,100,0.00,40.00,0,-999,0,0.00
2013-4-27,87,62,42,-100,-100,-100,0,0,100,0.00,40.00,0,-999,0,0.00
2013-4-28,86,64,41,-100,-100,-100,0,0,100,0.00,40.00,0,-999,0,0.00
2013-4-29,87,67,53,-100,-100,-100,0,0,100,0.00,40.00,0,-999,0,0.00
2013-4-30,100,81,64,-100,-100,-100,0,0,100,0.00,40.00,0,-999,0,0.00
2013-5-1,68,56,42,-100,-100,-100,0,0,100,0.00,40.00,0,-999,0,0.00
2013-5-2,42,35,32,-100,-100,-100,0,0,100,0.00,40.00,0,-999,0,0.00
2013-5-3,37,33,32,-100,-100,-100,0,0,100,0.00,40.00,0,-999,0,0.00
2013-5-4,68,50,33,-100,-100,-100,0,0,100,0.00,40.00,0,-999,0,0.00
2013-5-5,73,58,46,-100,-100,-100,0,0,100,0.00,40.00,0,-999,0,0.00
2013-5-6,82,66,48,-100,-100,-100,0,0,100,0.00,40.00,0,-999,0,0.00
2013-5-7,93,68,46,-100,-100,-100,0,0,100,0.00,40.00,0,-999,0,0.00
2013-5-8,95,67,48,-100,-100,-100,0,0,100,0.00,40.00,0,-999,0,0.00
2013-5-9,71,61,55,-100,-100,-100,0,0,100,0.00,40.00,0,-999,0,0.00
2013-5-10,68,57,48,-100,-100,-100,0,0,100,0.00,40.00,0,-999,0,0.00
2013-5-11,66,53,44,-100,-100,-100,0,0,100,0.00,40.00,0,-999,0,0.00
2013-5-12,73,49,33,-100,-100,-100,0,0,100,0.00,40.00,0,-999,0,0.00
2013-5-13,93,62,35,-100,-100,-100,0,0,100,0.00,40.00,0,-999,0,0.00
2013-5-14,105,78,55,-100,-100,-100,0,0,100,0.00,40.00,0,-999,0,0.00
2013-5-15,93,74,55,-100,-100,-100,0,0,100,0.00,40.00,0,-999,0,0.00
2013-5-16,87,71,53,-100,-100,-100,0,0,100,0.00,40.00,0,-999,0,0.00
2013-5-17,95,74,62,-100,-100,-100,0,0,100,0.00,40.00,0,-999,0,0.00
2013-5-18,89,74,59,-100,-100,-100,0,0,100,0.00,40.00,0,-999,0,0.00
2013-5-19,89,74,62,-100,-100,-100,0,0,100,0.00,40.00,0,-999,0,0.00
2013-5-20,102,76,60,-100,-100,-100,0,0,100,0.00,40.00,0,-999,0,0.00
2013-5-21,80,68,57,-100,-100,-100,0,0,100,0.00,40.00,0,-999,0,0.00
2013-5-22,75,58,53,-100,-100,-100,0,0,100,0.00,40.00,0,-999,0,0.00
2013-5-23,71,60,51,-100,-100,-100,0,0,100,0.00,40.00,0,-999,0,0.00
2013-5-24,86,60,42,-100,-100,-100,0,0,100,0.00,40.00,0,-999,0,0.00
2013-5-25,59,53,50,-100,-100,-100,0,0,100,0.00,40.00,0,-999,0,0.00
2013-5-26,66,53,50,-100,-100,-100,0,0,100,0.00,40.00,0,-999,0,0.00
2013-5-27,80,65,57,-100,-100,-100,0,0,100,0.00,40.00,0,-999,0,0.00
2013-5-28,86,71,62,-100,-100,-100,0,0,100,0.00,40.00,0,-999,0,0.00
2013-5-29,93,74,62,-100,-100,-100,0,0,100,0.00,40.00,0,-999,0,0.00
2013-6-5,71,66,59,-100,-100,-100,0,0,100,0.00,40.00,0,-999,0,0.00
2013-6-6,75,61,51,-100,-100,-100,0,0,100,0.00,40.00,0,-999,0,0.00
2013-6-7,77,62,55,-100,-100,-100,0,0,100,0.00,40.00,0,-999,0,0.00
2013-6-8,102,66,51,-100,-100,-100,0,0,100,0.00,40.00,0,-999,0,0.00
2013-6-9,82,68,59,-100,-100,-100,0,0,100,0.00,40.00,0,-999,0,0.00
2013-6-10,82,63,59,-100,-100,-100,0,0,100,0.00,40.00,0,-999,0,0.00
2013-6-11,69,63,59,-100,-100,-100,0,0,100,0.00,40.00,0,-999,0,0.00
2013-6-12,95,82,68,-100,-100,-100,0,0,100,0.00,40.00,0,-999,0,0.00
2013-6-13,93,83,62,-100,-100,-100,0,0,100,0.00,40.00,0,-999,0,0.00
2013-6-14,86,75,71,-100,-100,-100,0,0,100,0.00,40.00,0,-999,0,0.00
2013-6-16,91,86,69,-100,-100,-100,0,0,100,0.00,40.00,0,-999,0,0.00
2013-6-17,91,85,66,-100,-100,-100,0,0,100,0.00,40.00,0,-999,0,0.00
2013-6-18,87,77,62,-100,-100,-100,0,0,100,0.00,40.00,0,-999,0,0.00
2013-6-19,91,74,60,-100,-100,-100,0,0,100,0.00,40.00,0,-999,0,0.00
2013-6-20,104,71,64,-100,-100,-100,0,0,100,0.00,40.00,0,-999,0,0.00
2013-6-22,96,90,82,-100,-100,-100,0,0,100,0.00,40.00,0,-999,0,0.00
2013-6-23,84,75,66,-100,-100,-100,0,0,100,0.00,40.00,0,-999,0,0.00
2013-6-24,75,69,66,-100,-100,-100,0,0,100,0.00,40.00,0,-999,0,0.00
2013-6-25,93,76,66,-100,-100,-100,0,0,100,0.00,40.00,0,-999,0,0.00
2013-6-26,91,78,69,-100,-100,-100,0,0,100,0.00,40.00,0,-999,0,0.00
2013-6-27,87,74,64,-100,-100,-100,0,0,100,0.00,40.00,0,-999,0,0.00
2013-6-28,87,75,62,-100,-100,-100,0,0,100,0.00,40.00,0,-999,0,0.00
2013-6-29,78,70,64,-100,-100,-100,0,0,100,0.00,40.00,0,-999,0,0.00
2013-6-30,82,68,59,-100,-100,-100,0,0,100,0.00,40.00,0,-999,0,0.00
2013-7-1,84,67,55,-100,-100,-100,0,0,100,0.00,40.00,0,-999,0,0.00
2013-7-2,82,67,55,-100,-100,-100,0,0,100,0.00,40.00,0,-999,0,0.00
2013-7-3,84,68,57,-100,-100,-100,0,0,100,0.00,40.00,0,-999,0,0.00
2013-7-4,89,70,57,-100,-100,-100,0,0,100,0.00,40.00,0,-999,0,0.00
2013-7-5,91,74,59,-100,-100,-100,0,0,100,0.00,40.00,0,-999,0,0.00
2013-7-6,95,73,64,-100,-100,-100,0,0,100,0.00,40.00,0,-999,0,0.00
2013-7-7,96,80,68,-100,-100,-100,0,0,100,0.00,40.00,0,-999,0,0.00
2013-7-8,91,78,75,-100,-100,-100,0,0,100,0.00,40.00,0,-999,0,0.00
2013-7-9,93,81,71,-100,-100,-100,0,0,100,0.00,40.00,0,-999,0,0.00
2013-7-10,84,76,64,-100,-100,-100,0,0,100,0.00,40.00,0,-999,0,0.00
2013-7-11,86,68,57,-100,-100,-100,0,0,100,0.00,40.00,0,-999,0,0.00
2013-7-12,89,72,60,-100,-100,-100,0,0,100,0.00,40.00,0,-999,0,0.00
2013-7-13,78,70,62,-100,-100,-100,0,0,100,0.00,40.00,0,-999,0,0.00
2013-7-14,89,75,60,-100,-100,-100,0,0,100,0.00,40.00,0,-999,0,0.00
2013-7-15,93,73,64,-100,-100,-100,0,0,100,0.00,40.00,0,-999,0,0.00
2013-7-16,96,80,69,-100,-100,-100,0,0,100,0.00,40.00,0,-999,0,0.00
2013-7-17,100,81,69,-100,-100,-100,0,0,100,0.00,40.00,0,-999,0,0.00
2013-7-18,98,84,71,-100,-100,-100,0,0,100,0.00,40.00,0,-999,0,0.00
2013-7-19,96,82,71,-100,-100,-100,0,0,100,0.00,40.00,0,-999,0,0.00
2013-7-20,91,73,60,-100,-100,-100,0,0,100,0.00,40.00,0,-999,0,0.00
2013-7-21,84,71,64,-100,-100,-100,0,0,100,0.00,40.00,0,-999,0,0.00
2013-7-22,96,72,62,-100,-100,-100,0,0,100,0.00,40.00,0,-999,0,0.00
2013-7-23,80,67,60,-100,-100,-100,0,0,100,0.00,40.00,0,-999,0,0.00
2013-7-24,80,64,55,-100,-100,-100,0,0,100,0.00,40.00,0,-999,0,0.00
2013-7-25,89,70,57,-100,-100,-100,0,0,100,0.00,40.00,0,-999,0,0.00
2013-7-26,80,70,60,-100,-100,-100,0,0,100,0.00,40.00,0,-999,0,0.00
2013-7-27,71,59,51,-100,-100,-100,0,0,100,0.00,40.00,0,-999,0,0.00
2013-7-28,73,62,51,-100,-100,-100,0,0,100,0.00,40.00,0,-999,0,0.00
2013-7-29,82,61,48,-100,-100,-100,0,0,100,0.00,40.00,0,-999,0,0.00
2013-7-30,71,67,62,-100,-100,-100,0,0,100,0.00,40.00,0,-999,0,0.00
2013-7-31,86,69,62,-100,-100,-100,0,0,100,0.00,40.00,0,-999,0,0.00
2013-8-1,89,71,59,-100,-100,-100,0,0,100,0.00,40.00,0,-999,0,0.00
2013-8-2,86,69,64,-100,-100,-100,0,0,100,0.00,40.00,0,-999,0,0.00
2013-8-3,82,67,59,-100,-100,-100,0,0,100,0.00,40.00,0,-999,0,0.00
2013-8-4,84,65,55,-100,-100,-100,0,0,100,0.00,40.00,0,-999,0,0.00
2013-8-5,86,69,60,-100,-100,-100,0,0,100,0.00,40.00,0,-999,0,0.00
2013-8-6,91,74,62,-100,-100,-100,0,0,100,0.00,40.00,0,-999,0,0.00
2013-8-7,84,71,64,-100,-100,-100,0,0,100,0.00,40.00,0,-999,0,0.00
2013-8-8,84,69,57,-100,-100,-100,0,0,100,0.00,40.00,0,-999,0,0.00
2013-8-9,84,69,60,-100,-100,-100,0,0,100,0.00,40.00,0,-999,0,0.00
2013-8-10,86,66,55,-100,-100,-100,0,0,100,0.00,40.00,0,-999,0,0.00
2013-8-11,87,68,62,-100,-100,-100,0,0,100,0.00,40.00,0,-999,0,0.00
2013-8-12,86,70,62,-100,-100,-100,0,0,100,0.00,40.00,0,-999,0,0.00
2013-8-13,78,67,55,-100,-100,-100,0,0,100,0.00,40.00,0,-999,0,0.00
2013-8-14,80,62,48,-100,-100,-100,0,0,100,0.00,40.00,0,-999,0,0.00
2013-8-15,80,63,57,-100,-100,-100,0,0,100,0.00,40.00,0,-999,0,0.00
2013-8-16,82,64,51,-100,-100,-100,0,0,100,0.00,40.00,0,-999,0,0.00
2013-8-17,86,65,53,-100,-100,-100,0,0,100,0.00,40.00,0,-999,0,0.00
2013-8-18,86,66,53,-100,-100,-100,0,0,100,0.00,40.00,0,-999,0,0.00
2013-8-19,87,67,55,-100,-100,-100,0,0,100,0.00,40.00,0,-999,0,0.00
2013-8-20,91,73,62,-100,-100,-100,0,0,100,0.00,40.00,0,-999,0,0.00
2013-8-21,91,75,66,-100,-100,-100,0,0,100,0.00,40.00,0,-999,0,0.00
2013-8-22,86,75,69,-100,-100,-100,0,0,100,0.00,40.00,0,-999,0,0.00
2013-8-23,89,74,62,-100,-100,-100,0,0,100,0.00,40.00,0,-999,0,0.00
2013-8-24,93,76,68,-100,-100,-100,0,0,100,0.00,40.00,0,-999,0,0.00
2013-8-25,95,80,69,-100,-100,-100,0,0,100,0.00,40.00,0,-999,0,0.00
2013-8-26,96,79,68,-100,-100,-100,0,0,100,0.00,40.00,0,-999,0,0.00
2013-8-27,98,76,71,-100,-100,-100,0,0,100,0.00,40.00,0,-999,0,0.00
2013-8-28,98,92,80,-100,-100,-100,0,0,100,0.00,40.00,0,-999,0,0.00
2013-8-29,98,82,75,-100,-100,-100,0,0,100,0.00,40.00,0,-999,0,0.00
2013-8-30,100,85,71,-100,-100,-100,0,0,100,0.00,40.00,0,-999,0,0.00
2013-8-31,89,79,71,-100,-100,-100,0,0,100,0.00,40.00,0,-999,0,0.00
2013-9-1,86,75,66,-100,-100,-100,0,0,100,0.00,40.00,0,-999,0,0.00
2013-9-2,77,67,57,-100,-100,-100,0,0,100,0.00,40.00,0,-999,0,0.00
2013-9-3,78,63,48,-100,-100,-100,0,0,100,0.00,40.00,0,-999,0,0.00
2013-9-4,91,73,53,-100,-100,-100,0,0,100,0.00,40.00,0,-999,0,0.00
2013-9-5,95,77,62,-100,-100,-100,0,0,100,0.00,40.00,0,-999,0,0.00
2013-9-6,91,77,64,-100,-100,-100,0,0,100,0.00,40.00,0,-999,0,0.00
2013-9-7,96,78,68,-100,-100,-100,0,0,100,0.00,40.00,0,-999,0,0.00
2013-9-8,86,77,71,-100,-100,-100,0,0,100,0.00,40.00,0,-999,0,0.00
2013-9-9,100,83,69,-100,-100,-100,0,0,100,0.00,40.00,0,-999,0,0.00
2013-9-10,98,83,68,-100,-100,-100,0,0,100,0.00,40.00,0,-999,0,0.00
2013-9-11,91,76,68,-100,-100,-100,0,0,100,0.00,40.00,0,-999,0,0.00
2013-9-12,78,68,57,-100,-100,-100,0,0,100,0.00,40.00,0,-999,0,0.00
2013-9-13,71,59,50,-100,-100,-100,0,0,100,0.00,40.00,0,-999,0,0.00
2013-9-14,80,62,42,-100,-100,-100,0,0,100,0.00,40.00,0,-999,0,0.00
2013-9-15,71,62,55,-100,-100,-100,0,0,100,0.00,40.00,0,-999,0,0.00
2013-9-16,69,58,51,-100,-100,-100,0,0,100,0.00,40.00,0,-999,0,0.00
2013-9-17,64,58,50,-100,-100,-100,0,0,100,0.00,40.00,0,-999,0,0.00
2013-9-18,77,65,64,-100,-100,-100,0,0,100,0.00,40.00,0,-999,0,0.00
2013-9-19,89,74,66,-100,-100,-100,0,0,100,0.00,40.00,0,-999,0,0.00
2013-9-20,68,61,51,-100,-100,-100,0,0,100,0.00,40.00,0,-999,0,0.00
2013-9-21,69,57,44,-100,-100,-100,0,0,100,0.00,40.00,0,-999,0,0.00
2013-9-22,77,61,44,-100,-100,-100,0,0,100,0.00,40.00,0,-999,0,0.00
2013-9-23,75,62,50,-100,-100,-100,0,0,100,0.00,40.00,0,-999,0,0.00
2013-9-24,77,63,51,-100,-100,-100,0,0,100,0.00,40.00,0,-999,0,0.00
2013-9-25,77,65,51,-100,-100,-100,0,0,100,0.00,40.00,0,-999,0,0.00
2013-9-26,84,68,55,-100,-100,-100,0,0,100,0.00,40.00,0,-999,0,0.00
2013-9-27,86,74,62,-100,-100,-100,0,0,100,0.00,40.00,0,-999,0,0.00
2013-9-28,73,63,50,-100,-100,-100,0,0,100,0.00,40.00,0,-999,0,0.00
2013-9-29,73,56,42,-100,-100,-100,0,0,100,0.00,40.00,0,-999,0,0.00
2013-9-30,77,61,48,-100,-100,-100,0,0,100,0.00,40.00,0,-999,0,0.00
2013-10-1,62,59,57,-100,-100,-100,0,0,100,0.00,40.00,0,-999,0,0.00
2013-10-2,84,65,51,-100,-100,-100,0,0,100,0.00,40.00,0,-999,0,0.00
2013-10-3,86,70,62,-100,-100,-100,0,0,100,0.00,40.00,0,-999,0,0.00
2013-10-4,75,67,60,-100,-100,-100,0,0,100,0.00,40.00,0,-999,0,0.00
2013-10-5,71,60,42,-100,-100,-100,0,0,100,0.00,40.00,0,-999,0,0.00
2013-10-6,53,49,42,-100,-100,-100,0,0,100,0.00,40.00,0,-999,0,0.00
2013-10-7,73,56,42,-100,-100,-100,0,0,100,0.00,40.00,0,-999,0,0.00
2013-10-8,77,60,46,-100,-100,-100,0,0,100,0.00,40.00,0,-999,0,0.00
2013-10-9,75,60,48,-100,-100,-100,0,0,100,0.00,40.00,0,-999,0,0.00
2013-10-10,77,60,46,-100,-100,-100,0,0,100,0.00,40.00,0,-999,0,0.00
2013-10-11,78,65,53,-100,-100,-100,0,0,100,0.00,40.00,0,-999,0,0.00
2013-10-12,66,58,42,-100,-100,-100,0,0,100,0.00,40.00,0,-999,0,0.00
2013-10-13,64,48,35,-100,-100,-100,0,0,100,0.00,40.00,0,-999,0,0.00
2013-10-14,66,50,33,-100,-100,-100,0,0,100,0.00,40.00,0,-999,0,0.00
2013-10-15,59,54,50,-100,-100,-100,0,0,100,0.00,40.00,0,-999,0,0.00
2013-10-16,51,49,46,-100,-100,-100,0,0,100,0.00,40.00,0,-999,0,0.00
2013-10-17,62,50,41,-100,-100,-100,0,0,100,0.00,40.00,0,-999,0,0.00
2013-10-18,55,47,39,-100,-100,-100,0,0,100,0.00,40.00,0,-999,0,0.00
2013-10-19,57,44,35,-100,-100,-100,0,0,100,0.00,40.00,0,-999,0,0.00
2013-10-20,60,47,39,-100,-100,-100,0,0,100,0.00,40.00,0,-999,0,0.00
2013-10-21,50,40,31,-100,-100,-100,0,0,100,0.00,40.00,0,-999,0,0.00
2013-10-22,39,35,31,-100,-100,-100,0,0,100,0.00,40.00,0,-999,0,0.00
2013-10-23,48,38,31,-100,-100,-100,0,0,100,0.00,40.00,0,-999,0,0.00
2013-10-24,48,38,31,-100,-100,-100,0,0,100,0.00,40.00,0,-999,0,0.00
2013-10-25,59,41,27,-100,-100,-100,0,0,100,0.00,40.00,0,-999,0,0.00
2013-10-26,53,44,33,-100,-100,-100,0,0,100,0.00,40.00,0,-999,0,0.00
2013-10-27,62,41,27,-100,-100,-100,0,0,100,0.00,40.00,0,-999,0,0.00
2013-10-28,55,42,32,-100,-100,-100,0,0,100,0.00,40.00,0,-999,0,0.00
2013-10-29,60,49,39,-100,-100,-100,0,0,100,0.00,40.00,0,-999,0,0.00
2013-10-30,59,54,51,-100,-100,-100,0,0,100,0.00,40.00,0,-999,0,0.00
2013-10-31,60,49,42,-100,-100,-100,0,0,100,0.00,40.00,0,-999,0,0.00
2013-11-1,55,47,44,-100,-100,-100,0,0,100,0.00,40.00,0,-999,0,0.00
2013-11-2,53,44,33,-100,-100,-100,0,0,100,0.00,40.00,0,-999,0,0.00
2013-11-3,59,44,31,-100,-100,-100,0,0,100,0.00,40.00,0,-999,0,0.00
2013-11-4,55,49,44,-100,-100,-100,0,0,100,0.00,40.00,0,-999,0,0.00
2013-11-5,57,50,44,-100,-100,-100,0,0,100,0.00,40.00,0,-999,0,0.00
2013-11-6,57,40,31,-100,-100,-100,0,0,100,0.00,40.00,0,-999,0,0.00
2013-11-7,50,37,29,-100,-100,-100,0,0,100,0.00,40.00,0,-999,0,0.00
2013-11-8,51,40,27,-100,-100,-100,0,0,100,0.00,40.00,0,-999,0,0.00
2013-11-9,55,47,39,-100,-100,-100,0,0,100,0.00,40.00,0,-999,0,0.00
2013-11-10,51,40,29,-100,-100,-100,0,0,100,0.00,40.00,0,-999,0,0.00
2013-11-11,46,35,22,-100,-100,-100,0,0,100,0.00,40.00,0,-999,0,0.00
2013-11-12,31,22,14,-100,-100,-100,0,0,100,0.00,40.00,0,-999,0,0.00
2013-11-13,48,31,20,-100,-100,-100,0,0,100,0.00,40.00,0,-999,0,0.00
2013-11-14,55,42,32,-100,-100,-100,0,0,100,0.00,40.00,0,-999,0,0.00
2013-11-15,62,44,31,-100,-100,-100,0,0,100,0.00,40.00,0,-999,0,0.00
2013-11-16,66,54,41,-100,-100,-100,0,0,100,0.00,40.00,0,-999,0,0.00
2013-11-17,53,47,41,-100,-100,-100,0,0,100,0.00,40.00,0,-999,0,0.00
2013-11-18,42,36,27,-100,-100,-100,0,0,100,0.00,40.00,0,-999,0,0.00
2013-11-19,48,36,25,-100,-100,-100,0,0,100,0.00,40.00,0,-999,0,0.00
2013-11-20,41,39,37,-100,-100,-100,0,0,100,0.00,40.00,0,-999,0,0.00
2013-11-21,44,37,31,-100,-100,-100,0,0,100,0.00,40.00,0,-999,0,0.00
2013-11-22,31,25,16,-100,-100,-100,0,0,100,0.00,40.00,0,-999,0,0.00
2013-11-23,22,16,9,-100,-100,-100,0,0,100,0.00,40.00,0,-999,0,0.00
2013-11-24,31,16,5,-100,-100,-100,0,0,100,0.00,40.00,0,-999,0,0.00
2013-11-25,39,29,23,-100,-100,-100,0,0,100,0.00,40.00,0,-999,0,0.00
2013-11-26,32,25,16,-100,-100,-100,0,0,100,0.00,40.00,0,-999,0,0.00
2013-11-27,29,18,9,-100,-100,-100,0,0,100,0.00,40.00,0,-999,0,0.00
2013-11-28,33,23,14,-100,-100,-100,0,0,100,0.00,40.00,0,-999,0,0.00
2013-11-29,39,22,11,-100,-100,-100,0,0,100,0.00,40.00,0,-999,0,0.00
2013-11-30,48,35,27,-100,-100,-100,0,0,100,0.00,40.00,0,-999,0,0.00
2013-12-1,46,35,27,-100,-100,-100,0,0,100,0.00,40.00,0,-999,0,0.00
2013-12-2,44,38,33,-100,-100,-100,0,0,100,0.00,40.00,0,-999,0,0.00
2013-12-3,44,38,35,-100,-100,-100,0,0,100,0.00,40.00,0,-999,0,0.00
2013-12-4,46,38,22,-100,-100,-100,0,0,100,0.00,40.00,0,-999,0,0.00
2013-12-5,22,16,11,-100,-100,-100,0,0,100,0.00,40.00,0,-999,0,0.00
2013-12-6,16,10,4,-100,-100,-100,0,0,100,0.00,40.00,0,-999,0,0.00
2013-12-7,18,9,2,-100,-100,-100,0,0,100,0.00,40.00,0,-999,0,0.00
2013-12-8,23,18,13,-100,-100,-100,0,0,100,0.00,40.00,0,-999,0,0.00
2013-12-9,20,7,-5,-100,-100,-100,0,0,100,0.00,40.00,0,-999,0,0.00
2013-12-10,23,15,-2,-100,-100,-100,0,0,100,0.00,40.00,0,-999,0,0.00
2013-12-11,20,7,-4,-100,-100,-100,0,0,100,0.00,40.00,0,-999,0,0.00
2013-12-12,27,11,-2,-100,-100,-100,0,0,100,0.00,40.00,0,-999,0,0.00
2013-12-13,31,20,7,-100,-100,-100,0,0,100,0.00,40.00,0,-999,0,0.00
2013-12-14,25,22,14,-100,-100,-100,0,0,100,0.00,40.00,0,-999,0,0.00
2013-12-15,18,14,9,-100,-100,-100,0,0,100,0.00,40.00,0,-999,0,0.00
2013-12-16,27,18,14,-100,-100,-100,0,0,100,0.00,40.00,0,-999,0,0.00
2013-12-17,37,26,14,-100,-100,-100,0,0,100,0.00,40.00,0,-999,0,0.00
2013-12-18,50,30,13,-100,-100,-100,0,0,100,0.00,40.00,0,-999,0,0.00
2013-12-19,39,31,25,-100,-100,-100,0,0,100,0.00,40.00,0,-999,0,0.00
2013-12-20,31,28,25,-100,-100,-100,0,0,100,0.00,40.00,0,-999,0,0.00
2013-12-21,29,26,23,-100,-100,-100,0,0,100,0.00,40.00,0,-999,0,0.00
2013-12-22,29,21,7,-100,-100,-100,0,0,100,0.00,40.00,0,-999,0,0.00
2013-12-23,7,2,-4,-100,-100,-100,0,0,100,0.00,40.00,0,-999,0,0.00
2013-12-24,16,0,-14,-100,-100,-100,0,0,100,0.00,40.00,0,-999,0,0.00
2013-12-25,33,24,16,-100,-100,-100,0,0,100,0.00,40.00,0,-999,0,0.00
2013-12-26,42,25,13,-100,-100,-100,0,0,100,0.00,40.00,0,-999,0,0.00
2013-12-27,46,26,11,-100,-100,-100,0,0,100,0.00,40.00,0,-999,0,0.00
2013-12-28,50,35,25,-100,-100,-100,0,0,100,0.00,40.00,0,-999,0,0.00
2013-12-29,33,14,2,-100,-100,-100,0,0,100,0.00,40.00,0,-999,0,0.00
2013-12-30,14,3,-5,-100,-100,-100,0,0,100,0.00,40.00,0,-999,0,0.00
2013-12-31,14,5,-5,-100,-100,-100,0,0,100,0.00,40.00,0,-999,0,0.00
2014-1-1,16,11,9,-100,-100,-100,0,0,100,0.00,40.00,0,-999,0,0.00
2014-1-2,11,5,-7,-100,-100,-100,0,0,100,0.00,40.00,0,-999,0,0.00